STARLINK-35558, 66060

Orbit data source: Space-Track

STARLINK-35558, 66060 is a payload satellite owned by SpaceX/Seattle (US) in LEO that was launched on Sun, 19 Oct 2025 UTC via an FALCON 9 launch vehicle from the Air Force Eastern Test Range (AFETR). Payload-class satellites include a variety of spacecraft equipped with specific instruments for various scientific and technological missions. These include communications satellites like Starlink; space stations such as the ISS; scientific satellites like the Hubble; Earth observation satellites from companies like Planet Labs, Umbra, and HawkEye 360; GPS; miniature CubeSats for education and research; and military/defense satellites.

Loading next visibility...
Identifier
66060, 2025-235C
Orbit
LEO
Country
Flag of USUS
Related business
Manufacturer
SpaceX/Seattle
Mission
Operational Commercial Communications
Bus & Motor
STARLINK V2MO, Unknown motor
Mass
575 kg wet, ~530 kg dry
Launch date (UTC)
2025-10-19 (8 months ago)
Launch vehicle
FALCON 9
Launch site
Air Force Eastern Test Range (AFETR)
Object type
Payload
Rocket body
Debris
Shape & HBR
Box + 2 Pan, 17.7 m
Radar Cross Section
36.964 m², Large (>1 m²)

Expand to show TLE details & history
Last TLE update: 15 hours ago

TLE from 15 hours ago
0 STARLINK-35558
1 66060U 25235C   26171.20916813  .00015617  00000-0  53803-3 0  9994
2 66060  53.1624 129.3602 0001110 119.5891 240.5220 15.30215564 38616
Epoch: 2026-06-20T05:01Z
TLE epoch observation values (Epoch: 2026-06-20T05:01:12.126Z)
Latitude
-0.00006°
Longitude
145.63255°
Altitude
476.443 km
Speed
7.629 km/s
True Right ascension
08h 37m 26s
True Declination
0° 00' 00"
Sunlit
Object was in daylight at epoch
Visualization orbit readout
Latitude
Unknown
Longitude
Unknown
Altitude
Unknown
Speed
Unknown
Apparent Right ascension
Unknown
Apparent Declination
Unknown
Sunlit
N/A
Visualization observer readout
Local Sidereal Time
07:19:08
Azimuth
Unknown
Elevation
Unknown
Doppler factor
Unknown
Orbital elements
Apogee altitude
476.185 km
Perigee altitude
474.664 km
Semi-major axis
6,853.562 km
Eccentricity
0.00011
Inclination
53.1624°
RAAN
129.3602°
Arg. of periapsis
119.5891°
True anomaly
240.51093°
Mean anomaly
240.522°
Eccentric anomaly
240.51646°
Mean motion
3.82533 °/min
Orbital period
94.11 mins
BSTAR
0.00053803
Loading maneuver chart data...
Computing Atmospheric mass density...
Loading historical data...
Loading historical data...
Loading historical data...
Loading historical data...
Loading historical data...
Loading historical data...
Loading historical data...

Documentation

Showing up to 5 results
|